Powrót do katalogu

FENGYUN 1C DEB

AktywnySSO
NORAD 36660·DEBRIS·🇨🇳 China

Wystrzelony May 10, 1999 z Taiyuan Satellite Launch Center

Loading…

Następne Przeloty (najbliższe 24 godziny)

TLE

Starzejące sięSource: Space-Track

Epoka: Sep 10, 2026, 05:07 UTC

1 36660U 99025DYE 26253.21329582  .00000654  00000-0  35557-3 0  9999
2 36660  98.6324 249.6073 0046731 173.0992 187.0835 14.15033582672209

Śledź FENGYUN 1C DEB w czasie rzeczywistym z AllMySat

Download on the App Store